Theta_e
308 308 310 314 314 315 317 318 318 318 318 318 318 317 314 312 308 305 305 306 306 309 308 308 309 310 309 310 310 308 308 310 307 306 306 306 308 307 306 305 306 304 302 302 302 303 305 307 308 310 310 309 310 310 309 308 308 308 308 309 309 307 306 307 307 310 309 308 308 307 307 307 308 308
309 309 309 312 314 314 317 317 317 317 317 317 318 316 314 313 310 305 305 306 304 308 307 307 309 309 309 308 309 308 307 309 306 305 304 306 308 306 305 304 304 304 302 301 302 305 305 305 307 309 310 308 308 308 310 309 309 308 305 306 308 308 307 307 309 309 308 308 307 307 307 306 307 308
308 308 308 309 311 313 316 316 316 316 316 317 316 314 313 312 311 308 307 306 308 309 310 309 306 310 308 308 309 308 309 310 306 305 305 306 307 307 306 305 304 304 304 302 303 311 311 308 307 307 309 309 307 307 307 306 307 306 305 304 306 307 306 305 306 308 308 307 307 306 306 306 306 307
307 308 308 307 308 310 313 314 315 315 315 316 316 315 312 310 310 311 306 307 307 307 310 308 306 309 309 308 308 309 310 311 308 307 306 307 309 307 308 305 303 304 303 303 304 306 309 309 309 305 304 303 303 303 304 305 305 306 305 304 305 305 306 305 305 307 306 306 306 305 306 305 305 306
308 308 308 308 307 308 312 311 311 312 312 313 314 313 311 309 310 310 307 307 306 305 303 305 307 309 310 308 308 309 310 311 310 308 307 307 308 307 306 306 303 302 302 301 301 302 302 303 303 299 298 300 300 301 302 303 302 302 303 302 301 302 304 306 306 304 304 305 305 305 306 305 304 305
309 308 308 307 308 307 307 308 308 308 309 310 312 312 311 309 310 308 306 305 306 306 305 306 306 308 310 309 308 310 310 309 310 309 308 306 306 306 306 305 305 302 303 301 301 301 301 300 300 300 300 300 300 301 301 302 301 301 300 299 299 303 304 305 305 303 304 305 304 305 306 306 305 306
308 309 309 308 308 308 308 308 307 307 307 308 310 311 310 309 309 307 305 306 305 305 305 305 307 308 308 310 308 308 309 309 310 310 308 307 306 306 306 305 304 300 300 300 301 301 301 301 300 300 301 300 300 300 300 301 301 300 299 299 301 302 301 302 302 302 302 303 304 305 305 305 304 306
310 310 310 309 308 309 308 307 308 307 307 307 308 308 307 309 307 306 306 306 304 305 305 304 305 306 308 306 303 305 306 307 309 310 308 306 305 304 305 304 304 301 300 300 301 301 301 301 301 301 301 301 301 301 301 301 300 300 300 300 299 299 298 298 298 298 300 301 303 304 305 305 305 306
311 310 310 309 308 309 309 307 308 308 308 308 308 307 306 306 307 307 306 305 305 305 305 304 306 305 305 305 304 304 305 305 306 305 305 305 304 306 307 306 305 301 301 302 302 301 301 301 302 301 301 301 300 300 300 300 300 300 300 300 300 299 299 298 297 297 297 298 299 302 302 303 303 306
312 312 311 310 309 309 309 308 307 308 308 307 308 308 307 307 307 307 305 305 306 305 304 306 307 308 306 307 307 305 305 307 306 306 306 306 306 306 306 306 305 305 305 306 306 302 301 302 301 301 301 300 300 300 300 300 299 299 299 299 299 299 298 298 297 297 297 297 296 296 298 301 302 304
313 313 312 311 310 310 310 310 309 308 308 308 308 309 309 308 307 306 305 304 304 305 306 305 306 307 307 307 308 306 306 306 307 308 306 305 304 305 305 305 304 305 305 302 301 301 301 302 302 301 300 300 299 299 299 299 299 298 298 298 298 298 298 298 298 298 297 297 296 296 296 297 301 303
313 313 313 312 311 311 310 310 310 311 310 309 309 308 308 308 307 306 305 305 305 306 306 306 306 304 306 306 305 305 307 308 306 304 304 304 304 303 303 302 302 302 304 303 303 302 302 301 300 299 299 299 298 298 299 300 300 299 297 297 297 297 298 298 298 298 298 298 298 297 296 296 296 300
310 311 311 310 311 316 316 311 309 310 310 311 310 308 308 308 307 306 306 305 305 305 306 305 302 305 305 303 305 305 305 305 307 303 303 302 302 302 304 303 301 300 302 302 301 301 301 301 300 300 300 300 300 299 299 299 299 297 296 296 297 297 297 297 297 297 298 297 297 296 296 296 296 296
310 311 311 313 317 315 314 310 305 303 305 308 310 310 308 308 307 307 306 305 306 306 306 306 305 305 303 302 302 302 302 302 301 303 304 303 300 301 302 302 300 300 301 301 300 299 300 300 298 299 298 299 299 300 300 300 299 298 296 296 296 297 296 296 296 296 296 296 297 296 296 296 296 295
312 311 312 312 313 314 312 306 299 299 297 298 299 301 303 306 309 307 306 305 305 306 304 301 302 304 302 301 300 300 301 300 301 301 301 300 301 302 302 301 302 300 300 300 300 299 298 300 297 297 297 298 299 299 299 297 297 296 296 296 296 296 296 296 296 296 296 296 296 296 295 296 296 295
311 311 312 312 311 308 307 306 303 299 295 295 294 294 294 294 295 300 306 305 303 303 303 301 301 302 302 301 300 299 299 299 299 298 299 299 299 298 299 299 298 298 298 299 299 298 297 297 297 297 297 298 299 298 297 296 296 296 296 296 296 296 296 295 295 295 295 295 295 294 295 295 294 293
311 312 313 312 310 310 311 308 303 303 301 296 296 296 297 296 293 291 294 298 307 306 305 303 299 301 301 300 301 301 300 299 300 299 299 297 297 298 298 297 296 298 296 297 297 298 296 295 296 296 297 298 298 298 297 296 296 296 296 296 295 295 295 295 295 295 294 294 294 294 294 294 293 293
311 313 313 312 310 310 309 304 304 304 304 304 304 303 302 302 299 296 294 294 296 302 306 305 304 301 301 303 302 302 299 300 299 299 298 297 297 297 297 296 296 295 296 299 297 295 296 294 295 297 297 296 297 298 297 296 296 295 295 295 295 295 295 295 295 294 294 294 294 294 294 294 293 293
311 312 313 313 311 308 305 304 304 305 304 304 302 301 299 298 298 298 299 300 302 303 304 306 306 302 301 302 302 300 299 302 300 300 299 298 298 295 294 293 294 295 294 294 296 294 296 293 295 296 297 296 296 297 295 295 295 295 295 295 295 295 294 294 294 294 294 294 294 294 293 293 292 292
311 312 313 312 309 307 305 302 297 301 305 304 301 299 297 297 297 295 294 293 296 301 303 303 302 300 299 297 300 299 299 298 297 296 295 295 294 294 294 293 293 294 295 294 296 294 295 293 293 295 296 295 296 297 297 294 295 295 295 295 295 294 294 294 294 294 294 294 294 294 293 293 292 292
310 311 312 311 309 306 305 299 294 295 299 303 300 299 298 297 297 295 295 293 291 291 291 291 291 291 291 292 292 292 292 294 295 297 297 295 293 296 295 294 295 295 293 295 295 293 292 293 293 293 294 294 294 295 296 296 294 294 294 294 294 294 294 294 294 294 294 294 294 294 293 293 292 292
308 310 308 310 308 306 305 295 294 294 300 302 300 299 298 297 296 294 295 296 295 293 292 291 291 291 291 291 292 292 292 292 295 299 298 296 294 294 294 295 294 293 293 294 295 293 292 292 291 292 292 292 293 294 294 294 296 294 294 294 293 293 293 293 294 294 294 294 293 294 293 293 293 296
305 306 307 306 306 306 302 293 294 293 299 301 300 300 299 298 296 295 295 296 296 297 297 296 296 295 294 296 296 295 292 293 294 296 296 293 296 294 294 293 293 293 293 293 294 292 291 291 292 290 290 289 292 291 292 295 295 296 296 295 295 293 293 293 293 293 293 293 293 293 293 292 293 296
302 302 303 303 297 297 295 294 293 293 295 301 300 301 300 298 297 296 295 296 296 295 294 293 293 293 293 294 294 294 294 295 295 294 294 294 295 294 293 293 293 292 292 293 294 292 291 290 291 291 290 288 287 291 293 294 294 295 295 294 294 294 293 292 293 292 292 292 292 292 292 292 292 295
303 302 301 302 298 294 294 294 293 293 293 296 301 301 301 301 299 295 297 294 293 293 293 293 292 292 292 292 293 293 293 293 293 293 293 293 294 295 294 292 291 292 292 292 292 292 291 290 290 290 290 289 289 289 291 290 292 293 294 294 293 294 294 294 294 294 293 292 291 291 291 292 292 293
301 303 302 301 298 293 293 293 294 293 293 293 301 300 294 291 291 297 296 294 293 293 292 292 291 291 291 291 292 292 292 292 293 292 293 293 293 293 293 293 293 291 292 292 291 293 291 290 291 289 289 288 288 289 288 289 291 292 294 293 293 293 293 293 293 293 294 294 294 293 292 291 292 292
302 302 301 300 297 292 293 293 293 293 292 294 298 291 290 291 291 292 293 292 292 292 291 291 290 290 290 290 290 291 291 291 291 291 291 291 292 293 292 292 293 292 293 292 293 293 291 290 290 289 288 289 287 288 288 287 289 292 292 293 293 293 294 293 292 293 294 294 294 292 291 291 291 291
300 299 298 296 292 291 292 292 292 293 293 297 291 290 290 290 291 294 292 292 292 290 290 290 289 289 289 290 290 290 291 291 291 290 290 290 290 291 291 290 291 292 292 292 291 291 291 290 290 291 290 288 287 286 286 289 290 290 289 292 292 293 293 293 293 293 293 293 293 293 293 293 294 294
298 294 291 289 289 289 290 290 291 292 292 290 289 290 290 293 294 293 292 291 291 290 290 290 289 289 290 290 291 291 290 290 290 291 290 290 290 289 290 290 290 290 290 291 291 290 291 291 291 291 289 289 288 288 288 287 289 289 290 289 289 292 292 293 292 291 291 292 292 292 292 292 292 293
289 288 289 289 289 290 290 293 292 291 290 289 289 290 292 294 292 292 291 291 291 290 289 289 289 289 289 289 289 289 290 291 291 290 291 290 290 290 291 292 292 291 290 289 290 290 290 290 290 290 289 290 289 289 289 288 288 290 290 289 289 291 292 291 291 291 290 290 291 291 293 293 292 291
292 291 291 289 288 288 288 288 288 289 289 290 290 290 290 290 291 291 292 292 291 289 289 289 289 289 288 289 289 290 290 290 290 289 290 290 289 289 289 289 289 290 291 291 290 290 290 291 291 290 289 289 290 290 290 289 288 288 289 290 289 287 290 292 292 291 291 290 291 291 292 292 292 291
292 291 289 290 291 291 290 290 289 289 288 288 288 289 288 288 289 291 290 290 290 289 289 288 288 287 289 289 289 288 289 290 289 288 288 289 289 288 289 288 288 288 288 290 291 291 289 291 291 291 290 290 288 289 290 289 288 288 288 290 290 290 290 290 290 291 291 290 290 289 290 291 291 291
291 291 291 290 290 290 288 287 287 287 288 288 289 289 289 289 289 290 290 289 288 288 288 288 288 287 288 288 287 288 289 289 288 287 288 288 290 288 288 288 288 287 286 287 289 290 291 291 291 290 290 291 291 290 289 287 289 289 289 289 290 290 291 291 290 290 291 290 289 289 289 290 290 290
289 288 289 288 288 288 289 288 287 287 288 288 288 287 287 288 289 289 289 289 287 288 288 287 286 286 286 286 287 287 288 287 287 287 287 289 288 289 288 287 287 287 286 287 288 288 289 290 290 290 291 291 292 291 290 288 288 290 290 290 290 289 290 290 291 291 290 288 287 286 287 288 289 290
289 288 288 288 289 289 290 289 288 287 287 287 288 287 287 287 287 287 287 287 286 286 286 286 286 286 286 286 285 285 286 286 286 286 285 287 288 289 288 287 286 287 287 286 287 288 289 289 289 289 289 290 290 292 293 292 290 290 291 291 291 289 289 289 289 290 290 289 288 285 285 286 287 289
289 289 289 288 288 288 288 288 288 288 288 288 289 288 288 287 287 287 287 287 287 286 286 285 284 284 285 285 284 283 283 282 285 287 286 287 287 286 287 286 285 286 287 287 287 288 288 288 288 286 285 286 285 285 287 293 293 292 289 289 290 289 289 289 290 290 289 288 287 286 284 283 285 287
289 289 289 290 290 290 289 288 288 289 289 289 289 289 289 288 288 288 288 286 287 286 286 286 285 284 282 281 281 281 281 283 283 282 284 285 285 285 285 284 284 285 286 288 289 288 288 287 287 286 285 284 284 283 285 289 290 292 291 288 288 290 289 288 288 287 288 288 286 286 284 284 284 286
289 289 290 290 291 291 291 290 289 289 289 289 289 289 289 290 289 288 287 287 286 286 286 286 284 282 282 282 283 281 280 280 282 283 282 283 284 284 284 284 285 286 287 288 289 288 288 287 287 287 286 284 283 284 284 288 288 289 291 291 287 287 288 287 286 286 286 287 285 286 286 284 285 287
291 290 290 290 291 292 291 291 290 290 290 289 289 289 289 288 287 286 286 287 286 285 285 284 283 283 282 283 282 283 283 282 283 283 283 283 284 285 284 284 285 286 287 287 288 289 288 287 287 288 287 286 284 285 286 284 285 288 290 290 289 287 287 286 286 286 286 285 285 287 286 287 288 287
289 289 289 289 289 289 289 289 289 288 288 287 288 289 289 287 287 287 287 286 285 285 285 284 283 282 282 283 282 281 282 283 283 282 283 283 283 283 284 285 285 286 286 286 286 287 288 288 288 289 288 288 288 288 288 287 287 288 288 289 289 289 288 287 286 285 285 286 286 285 285 286 285 287
288 287 287 287 287 287 287 288 289 288 289 289 289 288 289 288 288 288 287 286 285 285 284 283 283 283 282 282 282 284 283 281 279 280 281 282 283 284 284 285 286 286 286 285 286 287 288 289 289 286 287 288 287 288 287 286 286 289 289 290 288 288 288 288 288 286 285 286 285 285 284 284 284 285
288 288 288 288 289 289 289 289 289 289 289 288 287 287 287 287 288 287 286 285 285 285 284 283 283 283 282 281 281 282 283 283 282 281 282 284 285 285 285 286 286 286 286 285 285 286 288 290 289 289 289 287 287 286 286 286 286 287 288 288 287 288 288 287 287 287 288 286 285 284 284 285 285 284
287 287 288 288 289 289 289 289 289 289 288 287 287 287 287 287 287 286 285 284 283 283 283 283 282 283 282 281 281 282 283 282 281 282 282 283 285 285 286 286 285 285 285 286 287 287 287 288 289 288 287 287 287 286 285 286 286 286 287 287 287 288 288 288 288 288 287 287 287 286 286 284 282 281
288 288 288 288 289 289 288 288 287 287 286 287 287 286 286 285 285 285 284 284 284 283 282 282 281 282 281 279 278 279 280 281 281 282 284 285 285 286 285 285 285 286 286 286 286 287 288 288 288 287 287 287 287 286 286 286 286 287 287 287 287 286 287 287 287 286 286 286 286 287 287 287 287 286
286 287 287 286 287 287 287 286 286 286 285 285 285 285 284 284 283 283 283 283 282 281 281 281 280 279 279 279 281 282 280 280 281 282 283 284 285 285 285 286 286 286 286 286 286 286 287 287 288 288 287 287 287 287 286 286 286 286 287 286 286 287 287 287 286 287 287 288 287 285 286 286 286 286
Wind_Speed
5 5 4 4 5 5 4 5 6 6 5 5 5 4 8 8 8 4 3 2 2 2 1 2 1 2 2 2 2 3 3 4 4 3 4 5 4 6 8 8 8 8 8 8 8 8 8 9 10 10 11 10 9 7 6 6 6 6 7 6 5 5 6 6 4 5 7 8 8 8 9 10 11 11
5 5 5 4 5 4 5 6 6 6 7 7 5 4 3 5 9 5 6 4 2 3 0 1 2 1 2 1 2 2 3 4 4 3 3 4 4 6 7 8 8 8 8 8 8 8 7 8 8 8 8 8 7 7 7 6 5 5 5 4 4 4 5 5 5 3 4 5 6 7 8 9 10 11
5 5 6 5 5 4 5 5 5 5 6 6 5 4 4 3 5 7 5 5 3 2 4 3 2 2 2 1 2 2 2 2 3 2 2 3 4 5 5 6 6 6 6 7 7 7 7 7 6 6 5 5 5 6 6 7 7 5 3 2 2 2 3 3 4 3 3 3 5 6 7 8 9 10
4 5 7 5 4 4 5 5 5 5 5 5 5 4 4 3 4 5 5 5 5 2 1 1 1 2 4 2 3 2 2 2 3 2 2 2 2 2 2 4 5 5 5 6 6 6 6 5 5 5 4 4 5 5 5 4 4 4 3 3 2 2 2 2 3 3 2 3 3 5 6 7 7 8
5 5 7 5 4 2 5 5 4 4 4 4 3 3 4 4 4 5 4 5 5 2 1 0 2 2 4 2 1 3 2 2 1 2 2 1 1 1 2 2 4 5 4 4 5 4 4 4 3 3 4 6 6 6 5 4 4 4 5 5 5 4 4 3 2 3 4 3 3 4 5 6 6 7
5 5 7 6 5 4 5 3 3 3 4 4 4 4 4 4 5 3 5 3 5 5 0 2 1 3 2 4 1 4 4 2 1 0 1 1 1 1 2 2 2 2 1 2 2 3 2 3 4 6 7 7 6 6 6 6 6 6 6 6 6 6 6 5 4 3 4 4 4 5 6 5 6 7
5 7 6 5 5 4 6 5 3 3 3 3 4 5 3 4 4 2 2 5 4 6 3 1 3 3 2 2 3 3 2 2 2 2 1 1 0 1 1 0 1 2 2 3 1 1 2 5 7 7 7 6 6 7 7 7 7 7 7 7 6 6 6 5 5 5 5 6 6 6 6 5 6 7
5 6 6 5 5 5 6 5 5 3 4 4 4 4 4 4 4 2 1 4 5 4 5 3 2 1 4 1 1 2 2 2 2 1 0 1 1 1 0 1 1 1 1 1 0 3 6 8 7 7 6 8 9 9 9 9 10 10 9 8 6 5 5 5 5 5 6 7 8 7 6 7 8 8
5 5 5 5 5 5 6 4 4 4 6 4 5 5 5 5 5 3 3 4 5 7 6 4 1 1 1 1 1 3 4 3 3 2 2 1 2 3 2 2 3 5 7 6 6 7 8 8 8 10 11 11 11 10 10 10 9 9 9 9 8 6 4 4 5 5 6 7 6 7 9 8 9 10
4 6 5 5 5 5 6 5 4 4 6 5 5 6 5 5 6 6 4 5 6 6 5 6 4 2 4 3 2 2 3 5 3 3 4 4 3 3 5 5 3 3 3 3 4 6 6 9 12 12 12 11 11 11 10 9 9 10 10 10 10 9 6 5 4 5 7 7 7 7 7 9 10 11
3 4 5 5 4 5 6 6 6 5 5 5 5 6 7 6 7 6 6 6 7 7 6 3 2 4 1 2 4 1 2 3 2 4 4 5 3 3 3 4 3 2 3 5 8 8 7 9 8 10 11 11 10 9 9 9 10 10 11 11 11 11 9 8 6 6 7 8 8 8 8 9 10 11
4 3 3 3 3 4 5 6 6 6 6 4 5 3 4 5 6 6 5 5 6 6 5 3 4 1 3 2 2 1 3 4 3 2 2 6 4 4 4 4 3 3 3 4 4 6 6 7 7 7 8 10 9 8 7 10 10 10 11 11 11 11 11 10 8 7 6 7 7 8 8 9 9 10
2 2 2 3 3 3 4 4 4 4 5 6 6 3 4 5 6 5 4 5 5 5 5 4 2 4 4 2 4 4 3 4 4 1 2 4 2 2 4 3 4 3 2 2 3 5 4 4 5 4 4 5 7 7 7 7 8 10 10 11 10 10 10 10 9 9 8 7 7 7 8 9 10 10
2 2 1 1 3 3 4 4 3 4 4 4 4 6 7 7 6 5 6 5 5 6 6 5 6 6 4 2 3 3 1 1 2 4 5 6 2 3 4 2 2 4 2 2 4 4 3 3 4 3 4 3 4 3 3 4 4 6 8 8 7 7 7 7 7 8 8 9 9 9 9 9 10 10
4 2 1 1 3 4 4 4 6 6 7 8 10 10 7 3 6 8 6 5 5 5 5 3 4 5 5 2 2 3 4 1 3 4 4 5 3 3 3 1 1 3 4 3 2 2 3 1 3 2 2 1 2 2 2 3 4 5 5 5 4 4 5 5 6 7 8 9 9 10 10 10 10 11
4 3 2 1 1 2 3 4 5 5 7 8 9 9 8 7 7 3 6 6 4 5 6 4 4 6 6 5 5 4 4 5 4 4 4 3 4 4 3 2 2 2 3 1 2 2 2 1 2 2 1 1 1 1 3 4 3 3 3 4 5 6 6 7 8 8 8 9 9 10 10 10 10 11
4 4 4 3 3 3 7 5 5 6 7 8 11 10 11 10 9 7 5 2 5 7 7 8 5 5 6 6 4 4 5 3 6 3 4 3 3 3 4 3 1 2 2 1 2 1 1 2 1 1 1 1 1 2 2 4 4 4 4 4 5 5 6 7 8 9 9 10 10 11 10 10 10 11
5 5 5 5 5 4 4 5 6 6 7 6 6 6 6 5 7 8 9 8 8 5 7 9 7 4 5 6 5 3 5 6 5 5 4 3 3 4 3 3 3 1 2 0 2 1 1 1 1 1 1 2 2 2 3 4 5 6 6 6 5 6 6 7 8 9 9 10 11 11 11 11 11 11
5 6 5 6 6 6 5 5 7 8 8 7 6 6 5 5 5 5 5 4 2 4 4 6 7 7 4 6 6 4 2 5 4 4 5 5 4 5 3 3 2 0 1 0 2 2 1 1 2 2 2 2 3 2 3 4 5 5 7 7 7 8 8 8 9 9 10 10 10 11 11 11 11 11
5 5 6 6 6 6 5 6 8 7 8 8 7 7 6 6 6 6 4 5 5 6 6 7 7 6 6 7 7 6 7 6 5 6 6 5 5 6 3 3 1 1 1 1 1 1 1 0 1 2 3 3 4 4 3 3 4 5 7 8 8 9 10 10 10 10 10 10 10 11 11 11 11 10
5 5 7 7 6 6 6 9 11 11 10 9 9 8 7 5 6 6 4 9 12 14 14 14 13 12 12 11 10 9 8 7 6 6 5 3 2 3 2 0 0 1 2 2 2 2 2 1 1 3 2 3 5 5 5 2 3 6 7 9 10 11 11 11 11 11 11 11 11 11 11 11 10 10
4 6 9 8 7 7 7 11 12 12 11 9 9 10 10 8 8 5 4 6 7 12 14 14 13 12 11 11 11 9 8 5 1 4 4 4 3 3 2 1 0 2 1 1 1 2 2 2 0 3 3 2 2 3 2 1 3 5 7 9 10 11 11 11 11 11 11 11 11 11 11 11 10 6
4 5 6 10 9 8 9 14 13 13 10 9 10 10 9 9 9 8 7 9 9 7 8 7 8 9 8 7 6 7 11 10 6 5 6 4 3 3 2 2 1 2 1 1 1 2 2 2 2 1 5 4 2 1 1 3 3 4 5 5 6 10 11 10 11 11 11 11 12 12 12 12 9 5
5 5 5 6 9 10 12 14 14 14 11 10 9 9 9 9 9 7 6 5 7 7 8 6 6 7 5 5 5 6 7 7 7 6 4 2 4 4 3 1 2 1 1 0 1 0 1 0 2 1 1 6 5 2 2 3 3 5 5 6 4 7 8 9 8 11 11 11 11 11 11 12 10 6
6 6 6 6 7 9 10 13 15 14 12 9 9 9 9 8 9 10 8 6 8 8 7 7 6 5 5 5 5 5 5 5 5 5 5 4 3 4 3 3 1 3 2 0 0 1 2 0 2 0 2 2 4 6 2 2 4 6 6 5 5 5 5 6 5 6 8 10 9 10 10 10 11 9
5 7 6 7 10 12 12 13 14 15 11 10 7 7 6 12 15 9 7 7 6 7 7 6 6 5 6 5 5 5 5 5 5 5 5 4 4 2 2 3 2 1 1 2 1 0 0 2 1 3 2 3 5 3 8 5 4 6 4 4 4 5 5 5 5 6 5 5 5 6 9 12 12 12
5 5 6 7 8 11 12 13 13 13 12 9 7 10 12 14 15 11 7 7 7 6 6 7 6 5 5 6 5 5 5 3 4 4 3 3 3 2 2 2 1 1 1 1 0 1 1 2 1 2 4 4 6 7 5 8 7 3 5 5 5 5 5 3 5 5 5 5 5 9 8 9 9 8
4 3 3 7 9 5 7 10 13 13 12 8 10 12 14 15 13 8 8 7 7 7 7 6 6 5 4 5 5 5 4 4 4 3 3 3 3 2 2 1 1 1 1 1 0 1 1 2 2 2 2 4 6 9 11 7 6 7 7 5 6 6 4 5 5 4 4 5 5 5 5 6 6 6
1 3 7 9 9 7 6 6 2 2 4 7 11 13 15 12 8 8 8 7 7 8 8 7 6 5 5 5 5 5 4 4 3 4 3 3 3 2 2 1 1 1 1 1 1 1 2 2 3 3 2 3 5 6 7 9 8 9 6 7 8 6 7 5 3 3 5 5 5 6 6 6 6 6
9 9 11 12 11 8 6 5 4 4 5 6 8 11 11 6 7 7 7 7 8 8 6 6 7 6 4 4 4 4 4 5 4 3 2 2 1 2 1 2 2 2 1 2 3 2 1 1 2 2 4 4 5 7 7 9 11 8 6 6 7 8 4 2 4 4 4 5 6 6 6 5 5 4
5 8 8 8 10 10 12 11 10 9 7 8 7 6 6 5 4 4 6 7 8 7 6 6 5 4 4 4 5 4 4 4 2 1 2 2 2 1 1 0 2 2 4 4 3 2 2 2 2 2 4 5 5 6 7 8 11 10 9 6 5 7 5 5 4 4 4 5 6 6 5 5 3 2
6 7 8 9 6 7 7 7 6 6 6 4 6 7 6 5 5 6 7 6 5 5 6 6 5 5 5 5 4 2 2 3 2 1 1 1 1 1 0 1 1 2 3 4 5 4 3 2 3 3 4 5 7 7 7 7 9 8 9 7 5 5 4 5 5 4 4 6 6 5 5 5 7 8
4 7 7 7 7 6 5 5 7 6 6 5 6 8 7 6 4 3 3 6 6 6 7 8 7 4 5 4 2 2 2 2 1 1 1 1 1 1 1 1 1 3 4 5 5 5 4 4 3 4 5 5 5 6 6 9 7 5 6 6 5 6 5 4 3 5 7 7 8 8 8 8 7 7
6 3 5 7 8 8 8 5 4 4 5 5 5 3 4 5 6 4 4 5 5 4 5 7 5 5 4 3 3 3 3 2 1 0 1 2 1 1 1 1 3 2 2 4 4 4 5 5 5 4 4 5 5 6 6 7 8 6 5 5 5 6 5 4 4 6 7 5 6 7 8 8 7 5
4 5 5 5 6 8 9 10 9 7 7 5 6 5 5 4 4 3 5 4 4 4 5 5 4 4 4 4 3 3 4 4 2 1 1 2 2 2 1 2 2 3 3 4 5 4 5 5 5 6 5 7 8 3 7 7 4 6 6 5 3 4 5 4 6 8 8 7 5 7 7 7 7 5
4 5 6 5 6 6 7 7 8 9 9 8 8 7 6 6 6 7 6 6 6 5 5 5 4 4 4 4 4 3 3 2 2 1 1 1 1 1 1 1 1 3 3 4 4 4 4 5 4 7 7 8 9 11 5 5 7 3 6 6 4 4 5 7 8 7 7 6 6 6 6 6 6 6
5 5 6 8 8 8 8 8 10 10 11 10 9 8 7 7 6 6 5 7 7 6 6 6 5 5 4 3 3 3 2 3 2 2 1 1 1 1 0 1 2 2 3 5 4 4 3 4 4 5 6 6 8 9 10 2 3 3 2 3 6 7 7 7 7 6 6 6 6 5 5 5 6 6
6 6 7 8 10 10 9 9 9 10 11 11 11 9 8 8 7 5 5 7 6 5 5 5 5 5 4 4 5 3 2 1 2 2 2 1 0 0 0 1 2 2 3 5 4 4 3 3 3 4 4 5 6 7 9 7 3 0 3 1 5 7 5 5 5 5 6 5 6 6 5 5 5 4
4 4 5 5 6 6 6 6 7 8 10 10 10 9 8 7 7 7 7 6 7 5 4 4 4 4 5 4 3 5 4 3 2 2 2 1 1 0 0 0 2 2 3 4 5 4 3 3 3 3 5 6 6 6 6 6 8 6 3 5 6 5 3 2 3 4 5 6 7 7 4 3 6 7
5 3 1 3 5 3 2 2 1 3 2 1 3 7 8 7 8 8 8 6 6 6 5 5 5 4 3 4 4 3 3 4 3 2 1 1 2 1 0 0 1 1 3 3 4 4 4 5 4 5 7 7 6 6 6 7 8 6 6 4 4 4 2 1 2 3 4 5 6 7 7 5 3 2
6 4 4 4 4 4 4 5 5 4 7 7 7 5 6 8 9 8 8 8 7 7 5 5 5 5 5 4 4 4 3 2 2 2 2 1 0 0 0 2 1 1 2 3 3 4 6 5 7 8 6 4 4 4 3 4 6 4 3 1 2 1 3 3 1 0 2 4 5 5 5 5 5 5
5 5 4 6 7 8 7 7 7 7 8 6 5 5 3 3 5 9 9 9 9 8 7 6 5 4 4 4 3 3 4 3 3 2 1 0 0 0 1 0 1 1 1 3 4 5 6 6 6 5 4 2 2 2 5 5 7 8 5 3 1 2 1 2 2 3 3 2 3 4 4 4 3 4
2 5 5 4 4 5 6 5 5 4 3 4 5 5 3 2 3 6 6 6 7 7 6 5 4 4 3 3 3 3 3 3 2 2 1 1 0 0 1 1 2 2 2 3 4 4 4 4 4 2 2 1 1 1 4 6 6 7 7 4 3 1 1 4 5 6 6 7 6 4 2 2 3 5
3 2 2 3 4 5 5 4 5 5 3 3 4 4 4 2 0 4 7 7 7 6 5 4 3 3 4 3 3 3 2 3 2 2 1 1 0 0 1 2 2 3 2 2 4 4 3 3 2 2 3 4 2 2 5 6 6 5 5 4 2 2 2 1 1 3 4 6 8 8 8 8 8 8
4 2 3 2 2 2 2 3 4 4 5 4 4 6 5 5 5 3 4 5 5 6 5 4 4 3 4 4 3 3 2 2 2 1 1 0 0 0 1 2 2 3 3 2 3 4 4 4 3 2 1 2 2 2 4 4 5 5 5 4 3 2 1 1 2 2 2 2 4 9 8 8 8 9
Wind_Direction
80 80 85 116 125 130 126 118 124 126 130 137 143 144 141 138 124 138 111 233 141 250 160 127 11 50 67 48 36 67 67 79 77 76 78 81 78 76 76 75 75 72 69 70 69 68 61 54 49 46 45 43 43 42 47 52 52 52 50 43 34 27 21 14 24 52 58 48 34 23 20 19 15 15
73 93 81 86 105 121 126 134 134 136 144 150 156 123 97 119 138 151 143 187 212 156 82 180 130 101 97 80 57 67 65 79 83 78 91 89 84 86 78 75 72 68 65 61 59 65 60 53 48 43 42 42 37 30 27 28 33 42 47 34 31 30 26 9 357 47 53 48 38 24 18 14 11 9
55 74 81 80 95 109 118 120 122 129 142 157 146 117 116 55 118 128 121 128 217 157 174 245 244 143 153 125 104 85 72 94 92 84 78 67 86 88 83 83 81 78 71 63 52 55 60 55 50 39 27 25 23 25 15 13 8 14 23 10 356 349 357 353 348 4 31 27 17 14 7 8 5 1
47 74 80 67 95 106 115 121 135 140 148 158 158 134 126 103 118 123 118 120 159 218 159 232 304 145 127 141 138 105 86 93 91 79 55 60 75 73 83 78 71 73 68 61 57 50 50 51 50 38 18 9 20 27 19 360 350 332 317 304 291 309 286 305 317 330 9 360 1 350 344 351 354 348
71 73 88 75 60 67 127 137 137 137 143 131 108 128 134 130 154 125 102 116 113 81 316 143 162 125 132 144 177 141 105 92 67 61 45 36 47 53 47 41 37 40 58 67 62 61 58 55 47 23 350 10 18 16 11 357 336 315 301 290 270 258 260 265 279 303 311 312 320 324 323 329 332 327
77 84 86 75 70 79 93 87 119 144 146 158 156 178 164 159 176 174 106 102 128 162 160 77 48 117 182 151 191 176 169 161 120 96 14 34 26 28 52 50 25 32 42 49 74 67 54 39 20 6 3 6 1 3 358 348 340 329 314 296 278 262 254 245 242 258 274 286 294 296 303 312 314 315
99 87 86 76 86 99 90 73 74 81 120 156 195 198 177 170 186 206 124 124 113 153 192 145 162 162 137 138 184 179 173 147 164 172 210 238 32 45 61 148 187 207 212 211 196 143 29 23 21 11 3 1 8 8 3 353 350 344 329 315 297 280 266 263 257 254 269 279 276 285 300 309 309 317
97 113 96 94 109 114 101 99 100 97 122 155 178 188 164 148 172 152 349 101 128 157 143 219 179 165 145 209 85 126 109 137 143 204 147 84 79 55 46 318 315 338 298 207 301 4 22 29 23 23 30 33 31 23 16 9 4 358 353 347 332 302 280 270 268 267 271 279 289 300 305 310 314 316
126 118 122 146 125 115 105 97 100 124 126 142 149 159 155 151 159 148 141 135 127 143 158 141 74 141 127 184 153 166 147 117 95 63 63 67 100 76 40 66 41 55 59 70 57 48 46 45 46 42 38 33 30 29 25 20 16 15 15 18 18 8 333 296 281 276 277 280 289 301 307 312 308 310
143 137 143 154 148 131 126 138 127 128 132 135 134 141 146 146 147 146 139 128 123 129 138 143 133 94 152 151 133 201 174 147 122 85 83 68 46 84 80 46 43 27 49 36 47 46 43 42 46 43 41 38 40 40 36 35 37 37 36 36 33 27 15 343 306 290 286 287 290 291 292 295 298 303
127 140 145 159 163 143 141 145 149 133 123 127 138 151 147 152 142 140 145 138 133 142 135 93 129 132 33 152 163 73 90 90 127 141 124 73 51 47 61 77 41 24 47 64 64 55 49 50 52 48 48 45 43 44 45 47 47 45 43 41 38 35 29 17 355 327 308 301 297 293 288 288 291 294
89 97 122 150 184 169 162 151 156 145 130 122 113 128 130 142 132 133 130 125 131 138 134 122 146 69 133 72 48 80 129 106 60 40 122 127 129 82 62 58 47 12 49 29 29 42 45 55 55 53 53 46 38 38 43 42 44 43 44 43 39 36 33 28 18 1 339 319 307 299 291 286 286 289
95 103 144 153 185 191 173 166 156 158 152 143 129 144 133 126 124 114 116 129 129 127 128 112 64 112 99 75 133 123 117 173 159 134 123 102 98 126 102 65 50 24 21 42 36 43 19 58 47 42 49 30 23 33 30 40 41 44 44 41 37 34 31 27 20 12 0 344 325 304 287 278 278 279
140 153 194 235 146 151 149 147 132 110 98 87 114 157 153 140 123 130 131 142 145 140 148 157 145 124 130 141 143 127 164 114 124 116 117 115 142 108 87 89 46 7 30 67 62 36 21 62 70 53 62 34 24 31 34 35 41 46 47 44 39 32 26 20 14 7 358 348 337 324 311 303 298 293
173 183 209 246 135 132 121 105 103 97 89 95 102 103 102 96 141 138 128 137 141 145 140 131 130 138 139 166 203 143 131 52 115 113 107 107 111 116 131 174 324 47 13 41 105 62 19 28 104 82 84 52 46 28 41 360 40 43 42 37 31 20 12 5 3 357 350 345 339 333 329 327 324 319
172 181 186 204 50 125 141 137 113 82 85 101 99 95 89 92 81 108 150 149 144 146 133 138 157 146 160 149 153 144 131 125 88 85 106 114 131 135 123 145 151 44 21 67 118 129 38 11 97 97 43 26 34 360 332 346 3 14 14 9 4 359 354 351 351 347 345 340 335 332 330 329 328 327
182 169 187 201 179 151 146 132 122 125 106 94 97 92 87 73 76 81 96 153 165 150 132 138 162 176 157 144 181 178 152 153 114 123 89 99 103 117 121 150 126 340 359 119 79 192 44 17 45 119 198 280 274 272 301 325 326 327 343 348 342 341 338 334 333 333 332 332 329 328 327 325 324 325
191 184 192 196 196 173 136 137 140 134 119 122 101 80 63 67 58 56 59 72 95 128 147 149 157 191 154 146 150 146 135 121 135 134 138 132 125 120 121 136 120 49 326 347 120 294 243 360 301 284 191 198 263 257 253 283 306 319 321 323 319 319 320 321 319 318 318 318 320 321 322 322 322 323
197 197 198 198 193 169 159 174 161 139 136 114 103 94 80 63 44 43 28 16 59 105 110 131 124 129 134 110 117 134 115 112 128 149 157 166 128 110 76 74 38 114 40 264 185 243 223 254 295 269 295 324 299 276 252 255 282 299 309 315 317 313 311 311 311 311 310 311 312 314 314 316 318 320
203 201 197 194 184 177 170 175 165 146 133 116 105 89 70 65 57 52 26 30 58 79 94 93 100 111 109 113 124 129 120 108 109 85 81 82 101 120 128 153 339 72 360 334 70 151 251 141 315 295 314 314 309 306 295 262 276 299 308 306 309 313 310 307 304 304 305 307 307 307 308 310 314 316
209 205 201 190 176 168 181 172 162 152 134 116 119 121 109 98 89 73 50 62 73 81 84 89 94 99 99 98 102 109 123 135 135 117 96 98 119 110 129 66 359 113 317 358 7 107 308 350 302 293 280 302 293 286 285 317 302 300 304 318 321 317 310 307 304 302 303 305 305 304 306 307 311 313
227 220 206 191 174 177 182 171 166 159 145 136 138 137 128 127 118 121 130 94 76 78 81 82 84 84 88 88 82 76 71 72 116 136 132 159 114 101 118 147 268 296 302 43 360 355 297 328 278 295 287 295 236 261 288 311 314 322 325 315 312 306 303 304 304 303 304 305 304 305 305 306 311 308
234 234 219 201 191 185 173 170 169 167 160 144 152 152 137 139 150 167 157 132 122 115 93 73 80 63 62 66 74 69 67 63 56 66 107 143 108 124 127 112 42 341 67 5 357 338 292 333 334 344 323 298 275 298 347 340 333 321 304 304 302 295 298 304 303 302 303 304 304 304 306 306 311 305
239 235 229 223 211 191 172 174 174 176 172 158 155 151 151 150 165 160 143 129 116 101 100 96 82 87 81 82 78 67 61 56 52 60 73 110 113 115 132 129 120 278 268 46 4 289 304 80 296 83 285 309 315 30 348 312 319 301 291 292 284 294 302 302 302 301 301 305 306 306 307 307 310 310
218 221 223 222 208 198 186 184 178 181 182 168 160 167 168 178 148 136 126 119 118 108 107 98 93 93 85 75 72 77 72 69 67 66 58 59 79 113 125 148 170 241 256 268 32 112 304 18 291 281 287 224 277 304 294 276 285 276 282 281 287 295 295 299 305 301 301 303 303 306 304 308 310 308
242 227 219 213 204 195 186 196 187 180 175 169 163 174 131 121 132 134 112 122 113 109 110 112 102 96 92 86 83 75 73 72 69 69 64 61 71 64 126 147 171 200 37 95 5 92 303 293 279 313 300 285 287 276 304 291 257 273 268 277 279 287 288 298 300 293 300 309 308 316 316 312 308 307
263 272 241 228 211 195 191 191 190 177 170 165 169 148 141 141 129 120 121 119 116 113 111 107 106 109 115 110 107 104 102 99 92 98 93 84 82 76 61 41 65 79 327 320 102 148 160 273 213 283 298 295 294 303 274 300 305 254 267 282 293 291 296 293 291 298 303 312 310 315 310 303 299 301
254 264 305 335 326 244 198 185 182 180 170 169 158 149 144 136 130 118 119 120 119 120 115 117 126 127 128 121 126 139 146 132 133 115 105 75 56 58 54 52 57 240 267 287 206 201 199 240 277 257 263 293 297 304 306 293 264 287 298 303 295 295 303 302 298 301 309 312 308 316 316 318 321 323
296 91 69 66 68 48 58 79 102 171 170 147 148 143 139 133 125 132 128 131 129 127 137 135 132 140 160 154 136 138 130 125 99 78 58 48 38 15 7 6 330 345 287 260 240 213 220 226 263 285 278 269 281 285 289 293 298 297 311 320 314 320 316 306 303 311 314 311 312 314 310 310 311 319
69 74 82 83 75 69 50 52 57 87 74 91 119 133 136 127 125 122 119 124 132 134 141 145 148 152 145 128 129 125 110 102 119 124 110 113 64 19 11 2 337 298 254 291 299 273 246 250 268 264 271 268 270 283 284 298 300 299 308 303 305 300 270 289 313 311 309 314 313 308 303 303 305 316
66 76 85 90 86 80 73 75 75 62 62 85 80 52 33 43 63 100 138 150 138 143 141 135 125 124 125 121 111 108 114 134 143 62 119 122 100 115 94 231 293 333 326 324 298 312 321 297 280 255 285 291 286 275 287 289 291 301 301 296 301 299 306 312 306 307 317 311 305 296 295 304 305 293
125 113 100 83 71 78 77 70 53 70 80 83 90 76 61 53 56 72 77 63 85 92 113 110 118 115 124 121 115 112 124 160 117 74 131 176 129 105 168 19 352 316 298 313 317 320 313 294 305 295 275 281 295 299 293 281 288 294 294 281 281 281 273 289 307 312 322 318 310 304 308 317 324 330
128 126 115 113 108 106 106 110 105 88 62 42 56 93 100 90 91 121 159 142 140 147 137 138 136 134 117 121 105 110 146 182 133 117 140 84 75 99 113 54 317 333 339 332 324 315 316 315 293 287 284 286 267 265 277 294 300 287 277 292 304 298 304 310 310 314 329 327 323 319 318 321 329 334
136 158 154 149 142 141 134 124 126 131 124 115 90 63 90 110 117 108 98 118 141 142 131 132 136 151 142 127 128 157 178 146 133 325 227 149 167 120 83 12 350 338 314 306 304 313 319 317 317 301 276 259 243 239 250 262 280 285 288 294 297 303 306 316 321 328 329 319 312 310 316 327 336 352
154 174 190 187 163 157 158 161 163 153 138 136 131 133 128 117 119 129 135 148 145 142 139 150 150 149 154 161 158 176 187 160 171 161 147 129 118 107 62 2 345 326 316 312 313 322 322 320 328 322 317 327 327 284 207 221 254 281 300 296 301 307 309 316 329 331 331 329 327 317 318 325 333 346
187 183 183 179 176 171 169 166 155 156 152 153 159 156 146 160 172 160 166 175 162 155 147 147 152 161 167 167 168 172 163 168 151 140 115 100 111 85 57 23 309 306 307 304 308 315 320 318 336 337 330 333 341 335 338 188 214 278 310 316 319 319 308 317 328 329 329 329 331 326 323 322 322 328
196 192 187 180 181 181 179 170 164 165 162 164 167 162 164 169 183 193 183 156 158 159 161 154 164 168 161 147 149 160 157 151 145 121 138 126 101 88 24 306 294 309 318 313 311 307 308 316 328 331 322 326 327 322 309 325 253 245 236 295 309 314 317 322 327 325 330 330 331 331 317 313 310 317
203 199 202 197 189 189 186 181 173 171 172 168 164 164 167 176 186 167 143 158 160 155 159 164 162 152 153 156 146 150 123 70 104 146 154 131 145 35 182 293 310 328 320 304 307 310 309 301 308 315 312 314 312 307 315 321 319 65 153 195 302 303 318 320 323 325 328 339 333 324 317 313 312 316
279 250 231 229 227 211 205 202 188 183 180 169 167 161 163 157 154 154 164 168 157 153 151 150 154 165 161 168 154 147 147 145 156 161 157 143 172 203 269 295 323 329 314 312 312 317 323 321 305 303 310 303 296 296 302 303 296 299 261 255 266 283 296 316 308 322 332 336 331 328 323 288 263 269
237 149 55 20 17 17 17 16 34 53 55 83 134 154 152 155 159 163 163 158 152 153 156 159 153 152 156 147 138 123 130 148 154 156 178 171 194 203 238 295 288 298 303 306 319 324 334 324 314 315 309 288 282 287 289 277 278 277 283 298 194 224 257 299 307 331 333 331 323 339 344 345 352 320
297 279 235 183 177 196 183 190 181 174 173 175 167 169 175 165 163 167 164 160 150 147 149 153 162 162 151 152 148 141 137 133 136 172 195 200 205 163 246 259 302 308 307 306 301 310 314 316 305 296 282 273 285 282 263 280 296 300 309 339 119 281 224 219 249 253 310 313 326 335 339 346 344 348
253 247 206 176 175 182 183 183 177 174 173 166 151 148 171 190 185 161 157 149 144 144 141 148 155 146 145 149 136 121 137 162 177 180 185 173 105 123 195 239 318 308 311 300 306 299 293 302 302 300 287 288 289 301 311 305 299 305 310 327 323 243 216 153 186 216 223 285 335 339 336 341 342 354
260 255 226 201 180 172 171 162 148 148 155 150 150 127 123 176 162 147 137 137 134 139 141 139 147 140 136 135 140 146 149 159 151 150 151 146 131 347 320 309 290 287 274 284 285 282 291 301 306 306 303 275 261 272 285 295 294 294 302 316 318 295 239 207 226 233 236 245 240 230 236 269 327 340
234 183 154 134 138 142 126 119 120 107 102 113 105 106 122 121 181 144 135 136 138 136 136 130 134 132 139 139 134 136 128 140 141 138 134 142 180 269 293 299 291 297 299 297 300 300 304 308 313 314 325 321 311 303 298 300 298 301 306 303 295 279 289 303 267 235 244 242 238 228 231 227 229 248
352 348 62 38 37 55 83 106 108 100 91 78 81 98 97 96 79 18 40 80 97 115 116 118 122 128 139 150 152 153 156 125 117 126 127 161 181 267 277 282 298 307 305 313 307 308 322 328 325 316 275 284 273 275 289 284 290 305 307 310 294 270 291 317 310 305 295 302 214 201 206 221 231 242